www.pogodaiklimat.ru

Погода и климат >> Архив погоды >> Россия >> Приморский край >> Лесозаводск


ПОГОДА в Лесозаводске

  • Прогноз погоды в Лесозаводске
  • Монитор погоды в Лесозаводске

АРХИВ ПОГОДЫ в Лесозаводске

Время (UTC), дата Ветер
(напр.,м/с)
 
Видим.   Явления Облачность Т
(С)
Тd
(С)
f
(%)
Тe
(С)
Тes
(С)
Комфортность P
(гПа)
Po
(гПа)
Тmin
(С)
Tmax
(С)
R
(мм)
R24
(мм)
S
(см)
09 10.07 З 2 20 км ясно +26.1 +18.2 62 +31 +33 очень
душно
1012.0 1000.0 +27.6
12 10.07 штиль 0 н/о н/о +20.1 +18.2 89 +23 1013.5 1001.3
15 10.07 ЮЗ 1 20 км 6 баллов +18.0 +17.2 95 +19 +19 1013.6 1001.3
18 10.07 Ю 1 н/о н/о +14.7 +17.2 117 +15 1015.2 1002.7
21 10.07 Ю 1 20 км местами туман поземный 10/0
[Ci fib]
+15.6 +14.7 94 +16 +17 1013.3 1000.8 +14.1
00 11.07 ЮЗ 1 н/о н/о +19.4 +15.2 77 +22 +22 комфорт 1012.6 1000.2
03 11.07 З 1 20 км 10 баллов +21.5 +16.7 74 +25 +25 комфорт 1012.1 1000.0
06 11.07 СЗ 1 н/о н/о +24.3 +16.8 63 +28 1009.3 997.3
09 11.07 З 3 20 км 6/0
[Ci sp]
+22.1 +16.6 71 +26 +27 душно 1008.1 996.0 +25.6
12 11.07 З 1 н/о н/о +17.4 +15.0 86 +18 1008.3 996.0
15 11.07 штиль 0 20 км 10 баллов +17.7 +15.0 84 +18 +18 1008.3 996.0
18 11.07 Ю 1 н/о н/о +16.3 +15.0 92 +17 1005.6 993.3
21 11.07 В 1 20 км местами туман поземный 10/0
[Ac trans Ci sp]
+16.0 +15.8 99 +17 +18 1005.1 992.7 +15.4
00 12.07 С 1 н/о н/о +21.1 +16.4 75 +25 +25 комфорт 1004.4 992.2
03 12.07 В 2 20 км 7 баллов +25.5 +16.6 58 +29 +35 душно 1003.9 992.0
06 12.07 В 3 н/о н/о +22.9 +14.2 58 +26 1002.7 990.7
09 12.07 Ю 1 20 км 10/4 600 м
[Cb cap Ac trans]
+22.1 +15.4 66 +26 +26 душно 1002.7 990.7 +26.3
12 12.07 Ю 1 н/о н/о +19.7 +14.9 74 +23 1004.1 992.0
15 12.07 СЗ 2 20 км 10 баллов +19.1 +15.8 81 +21 +21 комфорт 1004.2 992.0
18 12.07 В 1 н/о н/о +17.9 +15.9 88 +19 1002.9 990.7
21 12.07 В 2 20 км 10/10 1000 м
[Sc]
+18.5 +17.7 95 +20 +20 1002.7 990.4 +17.6
00 13.07 СВ 2 н/о н/о +21.3 +17.4 78 +25 +25 комфорт 1003.2 991.0
03 13.07 Ю 2 20 км 10 баллов +21.1 +16.7 76 +25 +25 комфорт 1004.1 992.0
06 13.07 ЮВ 1 н/о н/о +22.1 +16.8 72 +26 1004.0 992.0
09 13.07 В 2 20 км 10/0
[Ac As]
+22.2 +16.7 71 +27 +27 душно 1002.4 990.3 +23.3
18 13.07 В 1 н/о н/о +17.4 +17.9 103 +18 1005.5 993.3
21 13.07 штиль 0 20 км 10/10 600 м
[Sc]
+18.5 +17.7 95 +19 +19 1004.8 992.5 +17.3
00 14.07 ЮВ 1 н/о н/о +20.7 +17.3 81 +25 +25 комфорт 1005.1 992.8
03 14.07 С 1 20 км 10 баллов +23.5 +17.5 69 +27 +27 душно 1005.3 993.3
06 14.07 СВ 2 н/о н/о +24.9 +17.6 64 +29 1005.2 993.3
09 14.07 СВ 1 20 км 8/3 600 м
[Cu med, cong Ac lent Ci fib]
+24.4 +18.6 70 +29 +30 душно 1005.2 993.3 +25.4
12 14.07 Ю 1 н/о н/о +20.7 +17.1 80 +25 1006.8 994.7
15 14.07 ЮВ 1 20 км 7 баллов +17.6 +16.8 95 +19 +19 1008.3 996.0
18 14.07 ЮВ 1 н/о н/о +17.8 +14.3 80 +19 1008.3 996.0
21 14.07 В 1 20 км 6/0
[Ac trans]
+17.2 +14.2 83 +18 +19 1008.9 996.4 +16.5
00 15.07 В 1 н/о н/о +22.2 +16.4 70 +26 +26 душно 1010.0 997.8
03 15.07 Ю 2 20 км 7 баллов +24.0 +16.5 63 +27 +33 жарко 1010.7 998.7
06 15.07 ЮВ 2 н/о н/о +24.9 +17.1 62 +29 1010.7 998.7
09 15.07 Ю 1 20 км 8/0
[Ac trans]
+23.7 +17.0 66 +27 +28 жарко 1010.7 998.7 +25.7
12 15.07 Ю 2 н/о н/о +20.9 +15.9 73 +25 1012.2 1000.0
15 15.07 Ю 1 20 км ясно +18.5 +14.6 78 +20 +20 1013.6 1001.3
18 15.07 ЮВ 1 н/о н/о +16.7 +14.0 84 +18 1013.7 1001.3
21 15.07 Ю 1 20 км 10/10 600 м
[Sc]
+17.7 +14.5 82 +19 +19 1013.5 1001.0 +16.5
00 16.07 Ю 2 н/о н/о +20.9 +15.8 73 +25 +25 комфорт 1013.5 1001.2
03 16.07 ЮЗ 1 20 км 10 баллов +23.6 +16.6 65 +27 +27 жарко 1013.4 1001.3
06 16.07 Ю 2 н/о н/о +25.7 +18.1 63 +30 1012.0 1000.0
09 16.07 ЮЗ 1 20 км 8/4 600 м
[Cb cap Ac trans]
+23.4 +18.9 76 +30 +30 очень
душно
1012.1 1000.0 +26.1
12 16.07 ЮЗ 1 н/о н/о +20.5 +18.1 86 +25 1012.2 1000.0
15 16.07 Ю 1 20 км 6 баллов +17.6 +16.6 94 +19 +19 1012.3 1000.0
18 16.07 Ю 1 н/о н/о +17.1 +16.1 94 +18 1012.3 1000.0
21 16.07 Ю 1 20 км 9/9 600 м
[Sc]
+18.2 +17.2 94 +20 +20 1010.5 998.1 +16.9
00 17.07 Ю 2 н/о н/о +20.9 +16.6 76 +25 +25 комфорт 1010.0 997.7
03 17.07 ЮЗ 1 20 км 10 баллов +19.7 +18.0 90 +23 +23 комфорт 1010.9 998.7

 

Местоположение метеостанции Лесозаводск (Приморский край, Россия): широта 45.47 долгота 133.30 высота над уровнем моря 105 м.

В архиве по умолчанию представлена погода в Лесозаводске за последнюю неделю. Архивные данные за месяц целиком и за предыдущие месяцы, начиная с января 2011 года, Вы можете получить, выбрав интересующий диапазон дат из раскрывающегося списка и нажав кнопку "Ввод!".


*Определитесь, кто Вы:
робот инопланетянин человек

Внимание! Время в таблицах - всемирное. Для получения местного времени необходимо прибавить поправку, которая равна 10 ч.

Смотрите также архив погоды в соседних городах и на ближайших метеорологических станциях:

Погода в Хулине (Хэйлунцзян, Китай) (43 км)
Погода в Кировском (Приморский край, Россия) (44 км)
Погода в Дальнереченске (Приморский край, Россия) (54 км)
Погода в Малиново (Приморский край, Россия) (70 км)
Погода в Свиягино (Приморский край, Россия) (78 км)
Погода в Спасск-Дальнем (Приморский край, Россия) (101 км)
Погода в Турьем Роге (Приморский край, Россия) (107 км)
Погода в Баоцине (Хэйлунцзян, Китай) (128 км)
Погода в Астраханке (Приморский край, Россия) (132 км)
Погода в Чугуевке (Приморский край, Россия) (152 км)

Пояснения к столбцам:

Ветер - указаны скорость ветра в м/с - средняя за 10 мин, порывы в срок и между сроками (в фигурных скобках) и направление, откуда дует ветер: С - северный, СВ - северо-восточный, В - восточный, ЮВ - юго-восточный, Ю - южный, ЮЗ - юго-западный, З - западный, СЗ - северо-западный.
Видимость - горизонтальная дальность видимости в метрах или километрах. При видимости от 1 до 10 км при отсутствии осадков обычно наблюдается дымка, при ухудшении видимости до 1 км и менее - туман. В сухую погоду видимость может ухудшаться дымом, пылью или мглою.
Явления - указаны атмосферные явления, наблюдавшиеся в срок или в последний час перед сроком; фигурными скобками обозначены явления, наблюдавшиеся между сроками (за 1-3 часа до срока); квадратными скобками обозначены град или гололедные отложения с указанием их диаметра в мм.
Облачность - указаны через наклонную черту общая и нижняя облачность в баллах и высота нижней границы облаков в метрах; квадратными скобками обозначены формы облаков: Ci - перистые, Cs - перисто-слоистые, Cc - перисто-кучевые, Ac - высококучевые, As - высокослоистые, Sc - слоисто-кучевые, Ns - слоисто-дождевые, Cu - кучевые, Cb - кучево-дождевые. Подробнее классификацию облаков см. в Атласе облаков (PDF).
T - Температура воздуха - температура, измеренная на высоте 2 м над землей.
Td - Температура точки росы - температура, при понижении до которой содержащийся в воздухе водяной пар достигнет насыщения.
f - Относительная влажность воздуха - влажноcть воздуха, измеренная на высоте 2 м над землей.
Te - Эффективная температура - температура, которую ощущает одетый по сезону человек в тени. Характеристика душности погоды. При расчете учитывается влияние влажности воздуха и скорости ветра на теплоощущения человека.
Tes - Эффективная температура на солнце - температура, которую ощущает человек, с поправкой на солнечный нагрев. Характеристика знойности погоды. Зависит от высоты солнца над горизонтом, облачности и скорости ветра. Ночью, в пасмурную погоду, а также при ветре 12 м/с и более поправка равна нулю.
P - Атмосферное давление - приведенное к уровню моря атмосферное давление.
Po - Атмосферное давление - измеренное на уровне метеостанции атмосферное давление.
Tmin - Минимальная температура - минимум температуры воздуха на высоте 2 м над землей.
Tmax - Максимальная температура - максимум температуры воздуха на высоте 2 м над землей.
R - Количество осадков - Количество выпавших осадков за период времени, мм. При наведении курсора мыши на число - период времени, за который выпало указанное количество осадков.
R24 - Количество осадков - Количество выпавших осадков за 24 часа, мм.
S - Снежный покров - Высота снежного покрова, см. При наведении курсора мыши на число - состояние снежного покрова и степень покрытия местности в баллах.